Observer details:
104 San Marcello Pistoiese.  Observers P. Bacci, M. Maestripieri.  Measurers
    P. Bacci, L. Tesi, G. Fagioli.  0.60-m F4 Reflector + CCD.
654 Table Mountain Observatory, Wrightwood-PHMC.  Observers N. Evans, P. Choi,
    N. Saini, C. Zhai, R. Trahan, M. Shao.  1.0-m Reflector + CCD.
958 Observatoire de Dax.  Observer P. Dupouy.  0.50-m f/4.5 Reflector + CCD.
B49 Paus Observatory, Sabadell.  Observer J. Camarasa.  Measurer G.
    Duszanowicz.  0.30-m f/4.0 0.30-m + CCD.
B72 Soerth.  Observer B. Koch.  0.36-m f/7.6 0.36-m f/7.6 Schmidt-Cassegrain +
    CCD.
G02 KYSUCE Observatory, Kysucke Nove Mesto.  Observer M. Urbanik.  0.40-m
    f/5.5 Corrected Dall-Kirkham + CCD.
G34 Oberfrauendorf.  Observer T. Felber.  0.35-m f/6.3 Schmidt-Cassegrain +
    CCD.
H21 Astronomical Research Observatory, Westfield.  Observer R. Holmes.
    Measurers T. Linder, R. Holmes, L. Horn.  0.76-m f/3.0 astrograph + CCD.
I93 St Pardon de Conques.  Observer F. Losse.  0.40-m f/3.7 reflector + CCD.
J69 North Observatory, Clanfield.  Observer D. Briggs.  0.3-m f/5.4 Newtonian
    reflector + CCD.
J95 Great Shefford.  Observer P. Birtwhistle.  0.41-m f/6.3 Schmidt-Cassegrain
    + CCD.
K63 G. Pascoli Observatory, Castelvecchio Pascoli.  Observer R. Bacci.  0.41-m
    f/3.21 0.41m f/3.2  Newton + CCD.
K83 Beppe Forti Astronomical Observatory, Montelupo.  Observers M. Tombelli,
    M. Poggianti, E. Venticinque, A. Mazzanti, G. Interrante, M. Lombardo.
    Measurers M. Tombelli, F. Bernardi.  0.40-m f/8 Ritchey-Chretien + CCD.
K88 GINOP-KHK, Piszkesteto.  Observer K. Sarneczky.  0.60-m Schmidt + CCD.
L01 Visnjan Observatory, Tican.  Observer K. Korlevic.  1.0-m f/2.9 reflector
    + CCD.
M21 Schiaparelli Southern Observatory, Hakos.  Observers A. Aletti, F.
    Bellini, L. Buzzi, G. Galli.  Measurer L. Buzzi.  0.36-m f/8.4 reflector +
    CCD.
T08 ATLAS-MLO, Mauna Loa.  Observers L. Denneau, R. Siverd, J. Tonry, H.
    Weiland.  Measurers L. Denneau, N. Erasmus, A. Fitzsimmons, A. Lawrence,
    J. Robinson, R. Siverd, J. Tonry, H. Weiland.  0.5-m Reflector + CCD.
W33 Transit Dreams Observatory, Campobello.  Observer D. Wilde.  .36m SCT f2 +
    CCD.
W34 Squirrel Valley Observatory, Columbus.  Observer R. L. Flynn.  0.36-m
    f/1.9 0.36 Aplanatic Schmidt Cassegrain + CCD.
Y00 SONEAR Observatory, Oliveira.  Observer C. Jacques.  0.45-m f/2.9 0.45-m
    f/2.9 reflector + CCD.
Z41 Irydeo Observatory, Camarma de Esteruelas.  Observer F. Calvo.  0.30-m
    f/5.9 reflector + CCD.
Z80 Northolt Branch Observatory.  Observer G. Wells.  Measurers G. Wells, D.
    Bamberger.  0.25-m f/8.0 Ritchey-Chretien + CCD.

Orbital elements:
2022 MR                                                  Earth MOID = 0.0331 AU
Epoch 2022 Aug. 9.0 TT = JDT 2459800.5                  Veres                   
M   7.31528              (2000.0)            P               Q                  
n   0.31460123     Peri.   39.28798     +0.47997859     +0.86834539             
a   2.1410613      Node   259.72564     -0.83347330     +0.40694373             
e   0.5351302      Incl.    7.29179     -0.27375683     +0.28350146             
P   3.13           H   24.51          G   0.15           U   7                  
Residuals in seconds of arc
220621 K88  0.7-  0.8+    220621 K88  0.4-  0.3-    220622 K83  0.1-  0.4-
220621 K88  0.2+  0.1-    220621 K88  0.1-  0.1-    220622 K83  0.6-  0.0
220621 K88  1.0-  0.4-    220621 G02  0.0   0.1+    220622 958  0.8-  1.1+
220621 K88  0.2-  0.1+    220621 K88  0.5-  0.5-    220622 958  0.1-  0.6+
220621 K88  0.5+  0.4+    220621 G02  0.4-  0.3-    220622 K63  0.1-  0.0
220621 K88  0.2-  0.3+    220621 G02  0.2-  0.1-    220622 958  0.7+  0.6-
220621 K88  0.4-  0.9+    220622 Y00  0.0   0.1-    220622 Z41  0.3+  0.0
220621 K88  0.2+  1.1+    220622 Y00  0.2-  0.2-    220622 Z41  0.4+  0.2+
220621 K88  0.5+  0.1+    220622 Y00  0.1+  0.0     220622 Z41  0.1+  0.2-
220621 104  0.0   0.0     220622 W34  0.8-  0.0     220622 B72  0.0   0.6-
220621 K88  0.2-  0.3-    220622 W34  0.4-  0.4-    220622 Z41  0.4+  0.1-
220621 104  0.2-  0.2+    220622 W34  0.4-  0.3+    220622 G34  0.4-  0.2+
220621 K88  0.3-  0.1+    220622 W33  0.9+  0.9+    220622 Z41  0.4+  0.1-
220621 K88  0.0   0.0     220622 W33  0.0   0.1-    220622 B72  0.5+  0.5-
220621 K88  0.2-  0.2-    220622 W33  0.1+  0.3-    220622 G34  0.7+  0.2-
220621 104  0.2+  0.1+    220622 H21  0.0   0.3+    220622 G34  0.5+  0.0
220621 K88  0.3-  0.7-    220622 H21  0.1+  0.3+    220622 G34  0.6+  0.0
220621 J95  0.1+  0.2-    220622 H21  0.2+  0.4+    220622 B72  0.6+  0.3+
220621 J95  0.3-  0.1+    220622 654  0.1-  0.1-    220622 M21  0.1+  0.1-
220621 J95  0.2+  0.2+    220622 654  0.0   0.2-    220622 M21  0.3+  0.2-
220621 K88  0.3-  0.1-    220622 654  0.0   0.1-    220622 L01  0.4-  0.1+
220621 J95  0.3+  0.4-    220622 654  0.1-  0.1-    220622 L01  0.4-  0.1-
220621 K88  0.0   0.3+    220622 T08  1.1-  2.9-    220622 L01  0.3+  0.3-
220621 K88  0.1-  0.0     220622 T08  1.4-  1.1-    220622 L01  0.3+  0.3-
220621 K88  0.2-  0.8-    220622 T08  0.9+  0.0     220622 Z80  0.4-  0.2-
220621 I93  0.0   0.4+    220622 T08  0.3-  0.3+    220622 L01  0.0   0.1-
220621 I93  0.1-  0.3+    220622 K63  0.3-  0.4+    220622 Z80  0.4-  0.1+
220621 K88  0.3-  0.2-    220622 K83  0.3-  0.3-    220622 J69  0.1+  0.1-
220621 I93  0.3+  0.0     220622 B49  0.0   0.5+    220622 J69  0.8-  0.6-
220621 K88  0.0   0.2+    220622 B49  0.3-  0.6+    220623 J69  0.6-  0.7-
220621 K88  0.7-  0.3-    220622 B49  0.1-  1.1+    220623 H21  0.2+  0.1+
220621 K88  0.5+  0.0     220622 B49  0.5+  0.2-    220623 H21  0.1+  0.0

Ephemeris:
2022 MR                  a,e,i = 2.14, 0.54, 7                   q = 0.9953
Date    TT    R. A. (2000) Decl.     Delta      r    Elong.  Phase     V
2022 05 24    14 58 37.8 -32 53 45   0.1880  1.1922   161.4    15.7    22.1
...
2022 06 08    15 07 19.6 -25 06 12   0.09976 1.1051   153.5    24.2    20.9
...
2022 06 16    15 30 39.4 -11 38 39   0.05946 1.0666   147.9    30.4    19.8
...
2022 06 22    16 19 40.1 +15 50 21   0.03747 1.0424   133.5    45.0    19.2
2022 06 23    16 34 20.4 +23 01 56   0.03551 1.0388   128.5    49.9    19.2
2022 06 24    16 52 19.6 +30 45 43   0.03431 1.0354   122.7    55.7    19.3
...
2022 06 30    20 30 32.8 +64 15 15   0.04355 1.0173    89.7    87.9    20.8
...
2022 07 08    00 17 00.3 +60 24 51   0.07754 1.0014    76.5    99.2    22.5
...
2022 07 23    01 36 25.1 +51 34 03   0.1499  0.9984    79.1    92.5    23.7

M. P. C. Staff               (C) Copyright 2022 MPC           M.P.E.C. 2022-M38




More information about the Iaude mailing list